DW6879 Weather Reports


Display with metric or nautical units.
time (UTC)temp
F
wind
direction
speed
MPH
gust
MPH
rain 1hr
in
rain 24hr
in
rain mn
in
humidity
%
barometer
mb
20260505170056 64 63 0.0 4.0 0.00 0.00 0.00 59 1009.3
20260505164553 63 355 1.0 5.0 0.00 0.00 0.00 61 1009.3
20260505163053 62 5 0.0 5.0 0.00 0.00 0.00 60 1009.3
20260505161558 62 334 2.0 5.0 0.00 0.00 0.00 59 1009.3
20260505153043 59 299 0.0 0.0 0.00 0.00 0.00 62 1009.3
20260505151539 59 338 0.0 2.0 0.00 0.00 0.00 61 1009.3
20260505124515 44 17 0.0 0.0 0.00 0.00 0.00 85 1008.2
20260505123013 44 17 0.0 0.0 0.00 0.00 0.00 86 1008.1
20260505121512 44 17 0.0 0.0 0.00 0.00 0.00 85 1008.0
20260505120015 44 17 0.0 0.0 0.00 0.00 0.00 85 1007.7
20260505114507 44 17 0.0 0.0 0.00 0.00 0.00 86 1007.6
20260505113005 45 17 0.0 0.0 0.00 0.00 0.00 85 1007.7
20260505111504 45 17 0.0 0.0 0.00 0.00 0.00 84 1007.5
20260505101555 46 250 0.0 0.0 0.00 0.00 0.00 82 1007.1
20260505100054 46 250 0.0 0.0 0.00 0.00 0.00 81 1006.9
20260505094551 47 250 0.0 0.0 0.00 0.00 0.00 81 1006.8
20260505093049 47 250 0.0 0.0 0.00 0.00 0.00 80 1006.7
20260505091605 48 250 0.0 0.0 0.00 0.00 0.00 79 1006.7
20260505090047 49 250 0.0 0.0 0.00 0.00 0.00 79 1006.8
20260505084544 48 250 0.0 0.0 0.00 0.00 0.00 79 1006.8
20260505083042 49 250 0.0 0.0 0.00 0.00 0.00 79 1006.7
20260505081545 49 250 0.0 0.0 0.00 0.00 0.00 77 1006.7
20260505080037 49 250 0.0 0.0 0.00 0.00 0.00 75 1006.7
20260505074536 50 250 0.0 0.0 0.00 0.00 0.00 75 1006.7
20260505073034 51 250 0.0 0.0 0.00 0.00 0.00 74 1006.6
20260505071528 51 250 0.0 0.0 0.00 0.00 0.00 72 1006.5
20260505070025 52 250 0.0 0.0 0.00 0.00 0.00 71 1006.3
20260505064525 52 250 0.0 0.0 0.00 0.00 0.00 70 1006.1
20260505063024 51 250 0.0 0.0 0.00 0.00 0.00 71 1006.0
20260505061527 52 250 0.0 0.0 0.00 0.00 0.00 72 1005.9
20260505060023 52 250 0.0 0.0 0.00 0.00 0.00 70 1005.8
20260505054523 53 250 0.0 0.0 0.00 0.00 0.00 68 1005.8
20260505053022 54 248 0.0 0.0 0.00 0.00 0.00 63 1005.8
20260505051538 56 244 0.0 0.0 0.00 0.00 0.00 61 1005.9
20260505041522 62 351 0.0 0.0 0.00 0.00 0.00 48 1005.6
20260505040021 63 351 0.0 0.0 0.00 0.00 0.00 45 1005.5
20260505034518 64 40 0.0 6.0 0.00 0.00 0.00 44 1005.3
20260505033019 64 34 0.0 3.0 0.00 0.00 0.00 44 1005.0
20260505031518 66 5 3.0 6.0 0.00 0.00 0.00 42 1004.8
20260505030018 68 327 0.0 3.0 0.00 0.00 0.00 41 1004.6
20260505024517 70 286 0.0 1.0 0.00 0.00 0.00 37 1004.5
20260505023017 72 300 0.0 6.0 0.00 0.00 0.00 36 1004.4
20260505021516 74 288 0.0 8.0 0.00 0.00 0.00 35 1004.3
20260505020015 74 309 2.0 11.0 0.00 0.00 0.00 30 1004.2
20260505014615 75 327 1.0 15.0 0.00 0.00 0.00 28 1004.1
20260505013014 76 319 7.0 17.0 0.00 0.00 0.00 27 1004.1
20260505011516 76 310 11.0 17.0 0.00 0.00 0.00 25 1004.1
20260505010012 77 329 11.0 15.0 0.00 0.00 0.00 25 1004.1
20260505004512 77 329 10.0 18.0 0.00 0.00 0.00 25 1004.2
20260505003019 77 303 9.0 16.0 0.00 0.00 0.00 24 1004.2
20260505001511 77 325 9.0 19.0 0.00 0.00 0.00 25 1004.2
20260505000010 78 355 11.0 19.0 0.00 0.00 0.00 26 1004.1
20260504234509 78 325 11.0 18.0 0.00 0.00 0.00 27 1004.1
20260504233009 78 323 11.0 18.0 0.00 0.00 0.00 25 1004.1
20260504231506 78 311 11.0 19.0 0.00 0.00 0.00 25 1004.3
20260504230005 78 307 8.0 18.0 0.00 0.00 0.00 27 1004.3
20260504224601 78 321 11.0 18.0 0.00 0.00 0.00 25 1004.4
20260504223057 78 321 10.0 21.0 0.00 0.00 0.00 25 1004.6
20260504221554 78 292 8.0 21.0 0.00 0.00 0.00 23 1004.7
20260504220053 79 283 6.0 20.0 0.00 0.00 0.00 25 1004.7
20260504214651 79 301 13.0 24.0 0.00 0.00 0.00 21 1004.8
20260504213052 79 329 12.0 20.0 0.00 0.00 0.00 21 1005.0
20260504211548 79 333 16.0 25.0 0.00 0.00 0.00 23 1005.0
20260504210059 79 341 12.0 19.0 0.00 0.00 0.00 25 1005.0
20260504204548 79 321 9.0 16.0 0.00 0.00 0.00 29 1005.2
20260504203053 78 300 6.0 15.0 0.00 0.00 0.00 33 1005.2
20260504201537 77 292 8.0 16.0 0.00 0.00 0.00 33 1005.4
20260504200034 77 315 9.0 14.0 0.00 0.00 0.00 34 1005.6
20260504194533 76 329 8.0 13.0 0.00 0.00 0.00 41 1005.6
20260504193026 74 320 1.0 12.0 0.00 0.00 0.00 45 1005.8
20260504191524 73 296 0.0 8.0 0.00 0.00 0.00 47 1006.1
20260504190018 72 260 0.0 3.0 0.00 0.00 0.00 47 1006.2
20260504184518 71 325 0.0 6.0 0.00 0.00 0.00 46 1006.4
20260504183014 71 305 0.0 2.0 0.00 0.00 0.00 48 1006.5
20260504181508 69 39 0.0 3.0 0.00 0.00 0.00 51 1006.7
20260504180006 67 50 0.0 0.0 0.00 0.00 0.00 51 1006.8
20260504174502 66 39 0.0 0.0 0.00 0.00 0.00 54 1007.1
20260504173102 66 327 0.0 0.0 0.00 0.00 0.00 54 1007.1
20260504171556 65 326 0.0 0.0 0.00 0.00 0.00 55 1007.3